Regional Weather Roundup
Issued by NWS Upton, NY

Current Version | Previous Version | Graphics & Text | Print | Product List | Glossary Off
Versions: 1 2 3 4 5 6 7 8 9 10 11 12 13 14 15 16 17 18 19 20 21 22 23 24 25 26 27 28 29 30 31 32 33 34 35 36 37 38 39 40 41 42 43 44 45 46 47 48 49 50

000
ASUS41 KOKX 162305
RWROKX

REGIONAL WEATHER ROUNDUP
NATIONAL WEATHER SERVICE NEW YORK NY
600 PM EST TUE DEC 16 2014

NOTE: "FAIR" INDICATES FEW OR NO CLOUDS BELOW 12,000 FEET WITH NO
SIGNIFICANT WEATHER AND/OR OBSTRUCTIONS TO VISIBILITY.

NYZ071-072-176-178-NJZ106-104-170000-
NEW YORK CITY METRO AREA


CITY           SKY/WX    TMP DP  RH WIND       PRES   REMARKS
CENTRAL PARK   CLOUDY    47  42  83 SE5       29.97R
LAGUARDIA APRT CLOUDY    47  41  80 NE6       29.95R
KENNEDY INTL   LGT RAIN  47  41  80 E7        29.96R
NEWARK/LIBERTY CLOUDY    47  43  86 E3        29.95R
BRNX BOT. GARD   N/A     43  41  93 CALM      29.97R
TETERBORO      CLOUDY    45  40  82 NE3       29.95R
$$

NYZ177-179-078>081-170000-
LONG ISLAND NEW YORK

CITY           SKY/WX    TMP DP  RH WIND       PRES   REMARKS
FARMINGDALE    CLOUDY    47  43  86 E6        29.95R
ISLIP          CLOUDY    45  41  86 E7        29.94S
SHIRLEY        MOCLDY    46  41  82 CALM      29.97R
WESTHAMPTON    CLOUDY    46  42  86 E9        29.96F
MONTAUK POINT    N/A     47  43  86 E5        30.00F
$$

NYZ052-065-067-170000-
HUDSON VALLEY

CITY           SKY/WX    TMP DP  RH WIND       PRES   REMARKS
WHITE PLAINS   LGT RAIN  42  39  89 E7        29.94R
NEWBURGH       LGT RAIN  41  39  93 E5        29.95  FOG
MONTGOMERY     CLOUDY    38  37  97 CALM      29.94S FOG
POUGHKEEPSIE   LGT RAIN  42  38  85 CALM      29.95R
ALBANY         CLOUDY    39  34  82 SW7       29.95R WCI  34
$$

NJZ001-105-106-008-010-013-015-019>022-104-170000-
NEW JERSEY

CITY           SKY/WX    TMP DP  RH WIND       PRES   REMARKS
NEWARK/LIBERTY CLOUDY    47  43  86 E3        29.95R
TETERBORO      CLOUDY    45  40  82 NE3       29.95R
CALDWELL       CLOUDY    44  42  93 NE3       29.95S FOG
MORRISTOWN     CLOUDY    43  41  93 CALM      29.95S FOG
SOMERVILLE     CLOUDY    45  41  86 E6        29.92S
SUSSEX         CLOUDY    39  37  92 CALM      29.93S FOG
ANDOVER          N/A     42  40  92 CALM      29.92S
TRENTON        CLOUDY    46  42  86 SE8       29.91S
MILLVILLE      LGT RAIN  49  48  97 SE5       29.89S
ATLANTIC CITY  RAIN      49  48  97 SE8       29.89F FOG
WRIGHTSTOWN    CLOUDY    46  45  99 E6        29.89F
TOMS RIVER     CLOUDY    46  45  93 SE5       29.93F
BELMAR         CLOUDY    46  41  81 SE8       29.93S
$$

PAZ047>061-062-071-170000-
EASTERN PENNSYLVANIA

CITY           SKY/WX    TMP DP  RH WIND       PRES   REMARKS
PHILADELPHIA   LGT RAIN  49  45  86 SE7       29.90F
ALLENTOWN      LGT RAIN  44  41  89 NE7       29.90S VSB 1
SCRANTON       CLOUDY    43  39  86 CALM      29.87R
$$

CTZ002-004>006-009-010-012-RIZ004-006-007-MAZ004-011-015-170000-
SOUTHERN NEW ENGLAND
 IN CT

CITY           SKY/WX    TMP DP  RH WIND       PRES   REMARKS
BRADLEY INTL   CLOUDY    36  30  79 N5        29.97F WCI  32
HARTFORD       CLOUDY    36  31  82 VRB7      29.98F WCI  30
DANBURY        LGT RAIN  41  35  79 CALM      29.96S
WTRBRY/OXFORD  CLOUDY    41  34  75 E6        29.96F
BRIDGEPORT     CLOUDY    44  40  85 E8        29.97S
MERIDEN        CLOUDY    36  31  82 W5        29.98F WCI  32
NEW HAVEN      CLOUDY    46  38  73 E12       29.95F
CHESTER        CLOUDY    39  36  87 E3        29.97F
GROTON         CLOUDY    43  38  82 NE7       29.99F
WILLIMANTIC    CLOUDY    37  33  85 CALM      30.00F

 IN RI

CITY           SKY/WX    TMP DP  RH WIND       PRES   REMARKS
PROVIDENCE     CLOUDY    41  36  82 NE6       30.02F
BLOCK ISLAND   CLOUDY    46  41  81 E8        30.00F
WESTERLY       CLOUDY    43  39  86 NE6       30.00F

 IN MA

CITY           SKY/WX    TMP DP  RH WIND       PRES   REMARKS
BOSTON         CLOUDY    42  40  92 E5        30.05F
WORCESTER      FOG       34  34 100 E3        30.00F VSB 1
WESTFIELD      CLOUDY    36  30  79 N5        29.98F WCI  32
PROVINCETOWN   CLOUDY    43  39  87 E6        30.06F
NANTUCKET      CLOUDY    48  44  86 E8        30.04F
$$

ANZ330-335-338-340-345-350-353-355-170000-
COASTAL MARINE OBSERVATIONS


STATION/POSITION TIME  SKY/WX   TEMP    WIND        PRES    VSBY  WAVE
                                AIR SEA DIR/SP/G                  HT/PER
                 (UTC)          (F)     (DEG/KT/KT) (MB)    (MI)  (FT/S)
NY HARB ENTRANCE 2300            48 48  130/  8/  8 1014.4          2/11
4S FIRE IS       2300               46                N/A           2/11
20S FIRE ISLAND  2200            51 51              1014.3          2/11
23SW MTP         2300                                 N/A           2/ 7
HUDSON CANYON    2300            53 56  140/  8/ 10 1014.6          2/11
EXECUTION ROCKS  2300            43 41   40/  8/ 10   N/A
WESTERN LI SOUND 2300            44      80/ 10/ 10   N/A           2/ 3
CENTRAL LI SOUND 2200            44 45  100/ 16/ 19   N/A           1/ 2
EASTERN LI SOUND NOT AVBL
ROBBINS REEF     2300            47     130/  9/ 10 1012.9
$$


>>>>>>>>>>>>>>>>>>>>>>>>>>>> KEY <<<<<<<<<<<<<<<<<<<<<<<<<<<
>                                                          <
>     SKY/WX - SKY CONDITION/PRESENT WEATHER               <
>     TMP    - TEMPERATURE IN FAHRENHEIT                   <
>     DP     - DEWPOINT IN FAHRENHEIT                      <
>     RH     - RELATIVE HUMIDITY IN PERCENT                <
>     WIND   - DIRECTION AND SPEED IN MPH                  <
>     PRES   - MEAN SEA LEVEL PRESSURE IN INCHES OF HG     <
>     WCI    - WIND CHILL INDEX                            <
>     VSB    - VISIBILITY IN MILES                         <
>     HX     - HEAT INDEX                                  <
>     TC     - TEMPERATURE IN CELSIUS                      <
>     VRB    - VARIABLE WIND DIRECTION                     <
>                                                          <
>>>>>>>>>>>>>>>>>>>>>>>>>>>> KEY <<<<<<<<<<<<<<<<<<<<<<<<<<<





USA.gov is the U.S. government's official web portal to all federal, state and local government web resources and services.